WA1NHP Weather Reports


Display with metric or nautical units.
time (UTC)temp
F
wind
direction
speed
MPH
gust
MPH
rain 1hr
in
rain 24hr
in
rain mn
in
humidity
%
barometer
mb
20260504160404 64 211 8.0 23.0 0.00 0.00 0.00 38 1023.9
20260504150404 62 214 9.0 17.0 0.00 0.00 0.00 43 1023.9
20260504140404 59 222 6.0 14.0 0.00 0.00 0.00 47 1023.9
20260504130403 55 219 6.0 14.0 0.00 0.00 0.00 52 1023.9
20260504110403 44 227 3.0 8.0 0.00 0.00 0.00 68 1023.9
20260504100403 39 209 2.0 5.0 0.00 0.00 0.00 78 1023.9
20260504081404 43 205 1.0 5.0 0.00 0.00 0.00 73 1023.9
20260504080404 43 203 0.0 3.0 0.00 0.00 0.00 71 1023.9
20260504070404 42 234 0.0 5.0 0.00 0.00 0.00 73 1023.9
20260504050404 39 240 0.0 3.0 0.00 0.00 0.00 71 1023.9
20260504045403 39 239 0.0 3.0 0.00 0.00 0.00 70 1023.9
20260504044403 38 238 0.0 0.0 0.00 0.00 0.00 74 1023.9
20260504043403 37 238 0.0 0.0 0.00 0.00 0.00 74 1023.9
20260504042404 37 238 0.0 0.0 0.00 0.00 0.00 73 1023.9
20260504041404 37 238 0.0 0.0 0.00 0.00 0.00 73 1023.9
20260504040404 36 238 0.0 0.0 0.00 0.00 0.00 75 1023.9
20260504035404 36 238 0.0 0.0 0.00 0.00 0.00 77 1023.9
20260504034403 35 238 0.0 0.0 0.00 0.00 0.00 75 1023.9
20260504033403 34 238 0.0 0.0 0.00 0.00 0.00 74 1023.9
20260504032404 35 238 0.0 0.0 0.00 0.00 0.00 77 1023.9
20260504031404 35 238 0.0 0.0 0.00 0.00 0.00 76 1023.9
20260504030404 35 238 0.0 0.0 0.00 0.00 0.00 75 1023.9
20260504025404 35 238 0.0 0.0 0.00 0.00 0.00 77 1023.9
20260504024404 35 238 0.0 0.0 0.00 0.00 0.00 76 1023.9
20260504023403 35 238 0.0 0.0 0.00 0.00 0.00 74 1023.9
20260504022404 35 238 0.0 0.0 0.00 0.00 0.00 74 1023.9
20260504021403 35 238 0.0 0.0 0.00 0.00 0.00 75 1023.9
20260504020404 35 238 0.0 0.0 0.00 0.00 0.00 74 1023.9
20260504015404 35 238 0.0 0.0 0.00 0.00 0.00 73 1023.9
20260504014404 35 238 0.0 0.0 0.00 0.00 0.00 72 1023.9
20260504013404 36 238 0.0 0.0 0.00 0.00 0.00 72 1023.9
20260504012403 36 238 0.0 0.0 0.00 0.00 0.00 70 1023.9
20260504011403 36 238 0.0 0.0 0.00 0.00 0.00 70 1023.9
20260504010405 37 238 0.0 0.0 0.00 0.00 0.00 71 1023.9
20260504005403 38 238 0.0 0.0 0.00 0.00 0.00 69 1023.9
20260504004404 38 238 0.0 0.0 0.00 0.00 0.00 69 1023.9
20260504003404 39 238 0.0 0.0 0.00 0.00 0.00 65 1023.9
20260504002404 40 238 0.0 0.0 0.00 0.00 0.00 63 1023.9
20260504001404 41 238 0.0 0.0 0.00 0.00 0.00 64 1023.9
20260504000404 42 238 0.0 0.0 0.00 0.00 0.00 60 1023.9
20260503235404 43 238 0.0 0.0 0.00 0.00 0.00 52 1023.9
20260503234404 44 238 0.0 0.0 0.00 0.00 0.00 51 1023.9
20260503233404 45 238 0.0 0.0 0.00 0.00 0.00 51 1023.9
20260503232404 46 238 0.0 5.0 0.00 0.00 0.00 49 1023.9
20260503231404 47 256 2.0 8.0 0.00 0.00 0.00 46 1023.9
20260503230404 47 321 2.0 13.0 0.00 0.00 0.00 45 1023.9
20260503225404 47 285 3.0 13.0 0.00 0.00 0.00 45 1023.9
20260503224404 48 311 2.0 14.0 0.00 0.00 0.00 44 1023.9
20260503223404 48 302 6.0 12.0 0.00 0.00 0.00 44 1023.9
20260503222404 48 325 2.0 15.0 0.00 0.00 0.00 44 1023.9
20260503221403 49 281 1.0 12.0 0.00 0.00 0.00 45 1023.9
20260503220404 48 296 6.0 9.0 0.00 0.00 0.00 44 1023.9
20260503215404 48 299 5.0 12.0 0.00 0.00 0.00 44 1023.9
20260503214404 49 328 1.0 8.0 0.00 0.00 0.00 43 1023.9
20260503213403 48 295 2.0 12.0 0.00 0.00 0.00 45 1023.9
20260503212403 49 306 3.0 12.0 0.00 0.00 0.00 45 1023.9
20260503211403 49 245 1.0 15.0 0.00 0.00 0.00 44 1023.9
20260503210404 49 293 3.0 13.0 0.00 0.00 0.00 43 1023.9
20260503205403 49 13 5.0 10.0 0.00 0.00 0.00 44 1023.9
20260503204404 48 331 0.0 12.0 0.00 0.00 0.00 45 1023.9
20260503203404 49 296 2.0 16.0 0.00 0.00 0.00 44 1023.9
20260503202403 49 281 6.0 21.0 0.00 0.00 0.00 44 1023.9
20260503201403 48 320 2.0 20.0 0.00 0.00 0.00 45 1023.9
20260503200403 48 319 3.0 13.0 0.00 0.00 0.00 45 1023.9
20260503195403 48 267 3.0 24.0 0.00 0.00 0.00 45 1023.9
20260503194404 48 315 7.0 21.0 0.00 0.00 0.00 45 1023.9
20260503193404 48 329 5.0 17.0 0.00 0.00 0.00 46 1023.9
20260503192403 47 287 3.0 17.0 0.00 0.00 0.00 47 1023.9
20260503191404 49 295 3.0 12.0 0.00 0.00 0.00 45 1023.9
20260503190404 50 268 1.0 29.0 0.00 0.00 0.00 46 1023.9
20260503185404 51 335 2.0 18.0 0.00 0.00 0.00 43 1023.9
20260503184404 52 297 6.0 20.0 0.00 0.00 0.00 42 1023.9
20260503183404 51 305 5.0 17.0 0.00 0.00 0.00 45 1023.9
20260503182404 49 307 2.0 17.0 0.00 0.00 0.00 51 1023.9
20260503181403 48 350 3.0 13.0 0.00 0.00 0.00 49 1023.9
20260503180404 48 321 3.0 13.0 0.00 0.00 0.00 48 1023.9
20260503175404 47 332 5.0 12.0 0.00 0.00 0.00 50 1023.9
20260503174403 47 305 5.0 17.0 0.00 0.00 0.00 49 1023.9
20260503173403 47 333 4.0 16.0 0.00 0.00 0.00 51 1023.9
20260503172404 47 308 5.0 22.0 0.00 0.00 0.00 50 1023.9
20260503171404 48 290 3.0 14.0 0.00 0.00 0.00 53 1023.9
20260503170404 48 328 4.0 17.0 0.00 0.00 0.00 47 1023.9